{"data":{"norad_id":62973,"epoch":"2026-09-22T21:14:30.221664Z","epoch_age_seconds":109687,"freshness":"FRESH","line1":"1 62973U 25030C   26265.88507201 -.00000095  00000+0  62342-4 0  9994","line2":"2 62973  50.0016 245.4154 0000481  36.5822 323.5083 13.29327201 78857","mean_motion":13.29327201,"eccentricity":4.81e-5,"inclination_deg":50.0016,"raan_deg":245.4154,"arg_perigee_deg":36.5822,"mean_anomaly_deg":323.5083,"bstar":6.2342e-5,"rev_number":7885,"period_min":108.32547463986,"perigee_km":1148.9399681831,"apogee_km":1149.6641078186,"semimajor_km":7527.4390380008,"source":"CELESTRAK","updated_at":"2026-09-23T09:00:21.735632Z"}}